GAOFEN-8

Last updated on Mon Jun 22 2026 00:02:51 GMT+0000 (Coordinated Universal Time)

1 40701U 15030A 26172.55374683 .00017119 00000+0 35100-3 0 9990 2 40701 97.6910 6.1863 0009157 170.7942 189.3476 15.46090047612128
UTC large
Height (km)
Speed (km/s)
/
Latitude / Longitude
Inclination (degrees)
Orbital Period (minutes)
Azimuth
Elevation
Range (km)
Doppler Factor

Next 0 passes for location: London (51.5072 / 0.1276)

No passes found over London.
GAOFEN-8